sat.trackr.live / text

‹ back to catalog

STARLINK-37355

NORAD 69194 · 2026-114N

PAYLOAD ACTIVE UNKNOWN

§ Identity

Operator
Country
US
Launch date
2026-05-25
Launch site
AFETR
Launch vehicle
Mass (kg)
RCS (m²)

Purposes: comms

External: N2YO · Heavens-Above · Gunter

§ Orbital elements

Epoch: 2026-09-20T00:47:45.429216Z

Period
93.85 min
Inclination
53.1561°
Eccentricity
0.0001069
Mean motion
15.34426704 rev/d
Perigee alt
461.9 km
Apogee alt
463.4 km
Semi-major
6,840.8 km
B*
4.7369e-4
RAAN
115.9633°
Arg perigee
82.9313°
Mean anomaly
277.1811°
Rev number
1,937

§ Raw data

STARLINK-373551 69194U 26114N   26263.03316469  .00015675  00000+0  47369-3 0  99992 69194  53.1561 115.9633 0001069  82.9313 277.1811 15.34426704 19375

JSON: /api/v1/satellites/69194 · /tle

For live sub-satellite position, see the globe view (requires WebGL).

§ Visibility from observer

Set your observer location to see the next 7 days of passes ≥ 10°. The values pass through the URL so the page stays shareable.

No JS? Fill the form by hand. The geolocation button needs JavaScript.